SCP
2 1 1 1 1 1 2 2 1 1 1 1 1 1 2 3 2 1 1 0 0 0
1 1 1 1 1 1 1 1 1 1 1 2 2 2 2 2 1 1 1 1 0 0
0 0 1 1 0 1 0 0 1 2 2 3 3 3 2 2 2 1 1 1 0 0
0 0 0 0 0 1 0 0 1 1 2 3 3 2 2 1 1 1 1 1 1 0
0 0 0 0 0 0 1 0 0 1 0 1 2 1 2 1 1 1 0 0 0 0
0 0 0 0 0 0 0 0 0 0 1 1 1 1 1 1 1 0 0 0 0 0
0 0 0 0 0 0 0 0 1 0 1 1 1 1 1 1 1 0 0 0 0 0
0 0 0 0 0 0 0 0 0 0 1 1 1 1 0 0 0 0 0 0 0 0
0 0 0 0 0 0 0 0 0 0 0 0 0 1 0 0 0 0 0 0 0 0
0 0 0 0 0 0 0 0 0 0 0 0 0 0 0 0 0 0 0 0 0 0
0 0 0 0 0 0 0 0 0 0 0 0 0 0 0 0 0 0 0 0 0 0
0 0 0 0 0 0 0 0 0 0 0 0 0 0 0 0 0 -0 -0 0 0 0
0 0 0 0 0 0 0 0 0 0 0 0 0 0 0 0 0 0 0 0 0 0
0 0 0 0 0 0 0 0 0 0 0 0 0 0 0 0 0 0 0 0 0 0
Wind_Speed_500mb
2 21 30 30 42 44 34 36 31 43 48 45 41 52 67 69 66 62 58 59 59 57
16 22 24 22 34 46 55 53 48 42 41 44 41 39 51 75 74 67 66 66 65 66
26 25 23 22 25 27 39 47 46 49 41 43 46 45 40 48 57 66 71 70 70 68
32 29 25 23 25 26 29 34 41 41 40 43 46 45 44 51 49 59 65 66 64 62
22 32 33 28 25 23 26 27 26 37 42 41 41 42 41 43 46 54 58 53 47 47
19 20 28 38 30 27 25 25 27 23 34 40 43 30 26 33 42 44 48 46 45 47
26 27 26 30 38 38 24 21 22 20 21 31 39 38 41 41 41 44 41 41 39 38
24 30 34 28 39 42 32 24 22 21 17 17 27 39 39 45 50 46 38 46 42 45
33 31 29 34 36 41 33 37 30 17 20 17 16 22 24 34 42 40 42 45 46 46
42 40 35 33 36 33 35 40 38 30 18 14 15 17 22 21 20 28 43 49 42 40
30 37 45 46 36 29 42 41 40 37 29 20 20 21 22 23 28 29 29 31 39 54
43 39 36 40 48 42 28 35 41 40 34 33 29 32 29 30 37 39 38 40 41 40
43 49 47 43 41 44 44 44 39 45 40 40 41 40 36 34 33 37 40 42 45 56
37 39 48 57 58 51 46 39 48 51 53 52 48 46 47 39 42 38 43 49 45 48
Wind_Direction_500mb
285 256 255 267 256 259 252 251 271 261 264 265 271 244 232 234 241 245 241 243 243 241
347 329 321 295 262 261 262 258 258 266 266 259 259 264 245 234 238 243 247 247 251 252
22 28 18 347 313 296 271 269 259 256 264 262 248 257 253 240 242 245 247 251 254 254
6 354 350 357 354 340 315 289 272 262 245 247 248 246 246 248 244 253 250 253 259 259
357 346 339 333 329 331 331 329 297 264 255 250 249 256 256 254 257 249 251 254 257 259
299 322 333 326 332 317 315 320 328 312 269 258 248 241 248 266 268 267 271 266 268 269
311 320 312 311 316 326 307 307 313 324 307 266 244 238 262 267 258 264 268 263 264 265
311 315 309 312 303 312 309 306 292 304 304 297 276 262 260 260 254 259 254 263 264 268
296 297 304 308 315 292 301 303 300 291 285 299 308 306 292 279 259 256 252 257 264 274
306 291 295 303 310 291 288 286 296 296 303 318 314 312 303 294 277 265 259 255 255 260
306 309 296 299 302 321 294 274 279 285 297 294 308 298 289 295 298 296 289 285 280 266
287 303 305 311 303 298 303 295 278 277 278 276 277 283 290 287 288 297 301 298 288 283
298 289 292 291 300 303 294 293 285 279 274 274 276 281 290 289 290 291 282 300 301 289
312 315 299 290 285 286 293 292 286 278 274 277 284 281 281 278 281 291 293 281 289 297
Wind_Speed_850mb
2 21 30 30 42 44 34 36 31 43 48 45 41 52 67 69 66 62 58 59 59 57
16 22 24 22 34 46 55 53 48 42 41 44 41 39 51 75 74 67 66 66 65 66
26 25 23 22 25 27 39 47 46 49 41 43 46 45 40 48 57 66 71 70 70 68
32 29 25 23 25 26 29 34 41 41 40 43 46 45 44 51 49 59 65 66 64 62
22 32 33 28 25 23 26 27 26 37 42 41 41 42 41 43 46 54 58 53 47 47
19 20 28 38 30 27 25 25 27 23 34 40 43 30 26 33 42 44 48 46 45 47
26 27 26 30 38 38 24 21 22 20 21 31 39 38 41 41 41 44 41 41 39 38
24 30 34 28 39 42 32 24 22 21 17 17 27 39 39 45 50 46 38 46 42 45
33 31 29 34 36 41 33 37 30 17 20 17 16 22 24 34 42 40 42 45 46 46
42 40 35 33 36 33 35 40 38 30 18 14 15 17 22 21 20 28 43 49 42 40
30 37 45 46 36 29 42 41 40 37 29 20 20 21 22 23 28 29 29 31 39 54
43 39 36 40 48 42 28 35 41 40 34 33 29 32 29 30 37 39 38 40 41 40
43 49 47 43 41 44 44 44 39 45 40 40 41 40 36 34 33 37 40 42 45 56
37 39 48 57 58 51 46 39 48 51 53 52 48 46 47 39 42 38 43 49 45 48
Wind_Direction_850mb
285 256 255 267 256 259 252 251 271 261 264 265 271 244 232 234 241 245 241 243 243 241
347 329 321 295 262 261 262 258 258 266 266 259 259 264 245 234 238 243 247 247 251 252
22 28 18 347 313 296 271 269 259 256 264 262 248 257 253 240 242 245 247 251 254 254
6 354 350 357 354 340 315 289 272 262 245 247 248 246 246 248 244 253 250 253 259 259
357 346 339 333 329 331 331 329 297 264 255 250 249 256 256 254 257 249 251 254 257 259
299 322 333 326 332 317 315 320 328 312 269 258 248 241 248 266 268 267 271 266 268 269
311 320 312 311 316 326 307 307 313 324 307 266 244 238 262 267 258 264 268 263 264 265
311 315 309 312 303 312 309 306 292 304 304 297 276 262 260 260 254 259 254 263 264 268
296 297 304 308 315 292 301 303 300 291 285 299 308 306 292 279 259 256 252 257 264 274
306 291 295 303 310 291 288 286 296 296 303 318 314 312 303 294 277 265 259 255 255 260
306 309 296 299 302 321 294 274 279 285 297 294 308 298 289 295 298 296 289 285 280 266
287 303 305 311 303 298 303 295 278 277 278 276 277 283 290 287 288 297 301 298 288 283
298 289 292 291 300 303 294 293 285 279 274 274 276 281 290 289 290 291 282 300 301 289
312 315 299 290 285 286 293 292 286 278 274 277 284 281 281 278 281 291 293 281 289 297